This is the latest recevied weather packets stored in our database for station/object KJ6APE. If no packets are shown the sender has not sent any weather packets the latest 10 day(s).
| Time | Temp. | Humidity | Pressure | Rain* | Wind** | Luminosity | Snow |
|---|---|---|---|---|---|---|---|
| 1777650633 | 16.11° C | 70% | 1014.9 hPa | 0 mm | - | 346 W/m² | - |
| 1777650330 | 16.11° C | 70% | 1015.1 hPa | 0 mm | - | 331 W/m² | - |
| 1777650027 | 16.11° C | 71% | 1015.1 hPa | 0 mm | - | 315 W/m² | - |
| 1777649725 | 15.56° C | 71% | 1015.1 hPa | 0 mm | - | 292 W/m² | - |
| 1777649420 | 15.56° C | 71% | 1014.9 hPa | 0 mm | - | 272 W/m² | - |
| 1777649118 | 15.56° C | 71% | 1014.9 hPa | 0 mm | - | 254 W/m² | - |
| 1777648815 | 15.56° C | 73% | 1014.7 hPa | 0 mm | - | 235 W/m² | - |
| 1777648512 | 15.56° C | 72% | 1015 hPa | 0 mm | - | 222 W/m² | - |
| 1777648209 | 15.56° C | 74% | 1014.7 hPa | 0 mm | - | 201 W/m² | - |
| 1777647903 | 15.56° C | 74% | 1014.6 hPa | 0 mm | - | 183 W/m² | - |
| 1777647600 | 15.56° C | 73% | 1014.6 hPa | 0 mm | - | 166 W/m² | - |
| 1777647297 | 15° C | 74% | 1014.6 hPa | 0 mm | - | 148 W/m² | - |
| 1777646995 | 15° C | 75% | 1014.6 hPa | 0 mm | - | 135 W/m² | - |
| 1777646690 | 15° C | 76% | 1014.6 hPa | 0 mm | - | 120 W/m² | - |
| 1777646386 | 14.44° C | 77% | 1014.5 hPa | 0 mm | - | 105 W/m² | - |
| 1777646083 | 14.44° C | 78% | 1014.5 hPa | 0 mm | - | 95 W/m² | - |
| 1777645779 | 13.89° C | 79% | 1014.5 hPa | 0 mm | - | 83 W/m² | - |
| 1777645477 | 13.89° C | 80% | 1014.6 hPa | 0 mm | - | 73 W/m² | - |
| 1777645172 | 13.33° C | 80% | 1014.6 hPa | 0 mm | - | 64 W/m² | - |
| 1777644869 | 13.33° C | 81% | 1014.5 hPa | 0 mm | - | 55 W/m² | - |
| 1777644567 | 13.33° C | 81% | 1014.5 hPa | 0 mm | - | 48 W/m² | - |
| 1777644262 | 13.33° C | 82% | 1014.4 hPa | 0 mm | - | 43 W/m² | - |
| 1777643959 | 12.78° C | 83% | 1014.4 hPa | 0 mm | - | 41 W/m² | - |
| 1777643656 | 12.78° C | 84% | 1014.4 hPa | 0 mm | - | 37 W/m² | - |
| 1777643354 | 12.22° C | 85% | 1014.3 hPa | 0 mm | - | 33 W/m² | - |
* Rain latest hour (hover to see other rain measurements)
** Current wind speed in m/s (hover to see current wind gust speed)